EW1000 Weather Reports


Display with metric or nautical units.
time (UTC)temp
F
wind
direction
speed
MPH
gust
MPH
rain 1hr
in
rain 24hr
in
rain mn
in
humidity
%
barometer
mb
20260507160040 83 111 5.0 11.0 0.00 0.00 0.00 54 1014.7
20260507154541 83 99 4.0 10.0 0.00 0.00 0.00 53 1015.0
20260507153044 82 142 6.0 12.0 0.00 0.00 0.00 56 1015.3
20260507151532 82 101 3.0 10.0 0.00 0.00 0.00 57 1015.3
20260507150032 81 148 3.0 7.0 0.00 0.00 0.00 58 1015.5
20260507144529 80 190 2.0 9.0 0.00 0.00 0.00 59 1015.6
20260507143025 79 117 3.0 13.0 0.00 0.00 0.00 63 1015.7
20260507141525 78 70 2.0 10.0 0.00 0.00 0.00 66 1015.9
20260507140025 78 333 4.0 11.0 0.00 0.00 0.00 64 1016.1
20260507134523 78 160 2.0 8.0 0.00 0.00 0.00 66 1016.0
20260507133022 78 305 2.0 9.0 0.00 0.00 0.00 66 1016.2
20260507131521 78 142 2.0 7.0 0.00 0.00 0.00 66 1016.2
20260507130017 77 53 5.0 10.0 0.00 0.00 0.00 68 1016.1
20260507124517 76 125 2.0 5.0 0.00 0.00 0.00 70 1016.1
20260507123012 75 109 3.0 8.0 0.00 0.00 0.00 72 1016.2
20260507121508 74 157 3.0 6.0 0.00 0.00 0.00 75 1016.1
20260507120006 74 85 3.0 6.0 0.00 0.00 0.00 77 1016.1
20260507114503 73 151 2.0 4.0 0.00 0.00 0.00 80 1016.1
20260507113002 72 128 1.0 7.0 0.00 0.00 0.00 82 1015.9
20260507111503 71 109 1.0 3.0 0.00 0.00 0.00 83 1015.8
20260507110002 71 102 2.0 5.0 0.00 0.00 0.00 84 1015.7
20260507104559 0 0.0 0.0 0.00 0.00 0.00 1015.5
20260507103055 0 0.0 0.0 0.00 0.00 0.00 1015.4
20260507101552 0 0.0 0.0 0.00 0.00 0.00 1015.4
20260507100053 0 0.0 0.0 0.00 0.00 0.00 1015.3
20260507094554 0 0.0 0.0 0.00 0.00 0.00 1015.1
20260507093045 0 0.0 0.0 0.00 0.00 0.00 1015.0
20260507091541 0 0.0 0.0 0.00 0.00 0.00 1014.8
20260507090041 0 0.0 0.0 0.00 0.00 0.00 1014.5
20260507084533 0 0.0 0.0 0.00 0.00 0.00 1014.4
20260507083037 0 0.0 0.0 0.00 0.00 0.00 1014.3
20260507081528 0 0.0 0.0 0.00 0.00 0.00 1014.3
20260507080019 0 0.0 0.0 0.00 0.00 0.00 1014.4
20260507074526 0 0.0 0.0 0.00 0.00 0.00 1014.4
20260507073010 0 0.0 0.0 0.00 0.00 0.00 1014.4
20260507071508 0 0.0 0.0 0.00 0.00 0.00 1014.5
20260507070004 0 0.0 0.0 0.00 0.00 0.00 1014.6
20260507064600 71 132 0.0 4.0 0.00 0.00 0.00 83 1014.7
20260507063059 72 105 2.0 4.0 0.00 0.00 0.00 83 1014.9
20260507061554 72 102 1.0 4.0 0.00 0.00 0.00 83 1015.0
20260507060052 72 145 1.0 5.0 0.00 0.00 0.00 83 1015.2
20260507054602 72 108 3.0 6.0 0.00 0.00 0.00 83 1015.3
20260507053048 72 125 2.0 7.0 0.00 0.00 0.00 83 1015.5
20260507051546 72 165 3.0 7.0 0.00 0.00 0.00 83 1015.5
20260507050044 73 102 1.0 5.0 0.00 0.00 0.00 83 1015.7
20260507044543 73 153 1.0 6.0 0.00 0.00 0.00 83 1015.8
20260507043041 73 96 2.0 7.0 0.00 0.00 0.00 83 1016.0
20260507041539 73 113 1.0 6.0 0.00 0.00 0.00 83 1015.9
20260507040043 73 150 1.0 8.0 0.00 0.00 0.00 83 1016.0
20260507034535 73 123 1.0 8.0 0.00 0.00 0.00 84 1016.2
20260507033036 73 109 3.0 6.0 0.00 0.00 0.00 84 1016.3
20260507031530 73 120 3.0 8.0 0.00 0.00 0.00 85 1016.4
20260507030030 73 139 3.0 7.0 0.00 0.00 0.00 84 1016.2
20260507024526 73 127 0.0 6.0 0.00 0.00 0.00 84 1016.2
20260507023028 73 117 5.0 9.0 0.00 0.00 0.00 84 1016.1
20260507021523 74 120 4.0 7.0 0.00 0.00 0.00 83 1016.2
20260507020025 74 70 4.0 7.0 0.00 0.00 0.00 82 1016.1
20260507014521 74 108 4.0 8.0 0.00 0.00 0.00 82 1016.0
20260507013028 74 106 4.0 10.0 0.00 0.00 0.00 83 1015.8
20260507011533 75 115 2.0 8.0 0.00 0.00 0.00 82 1015.7
20260507010019 75 107 2.0 8.0 0.00 0.00 0.00 82 1015.5
20260507004518 75 107 5.0 9.0 0.00 0.00 0.00 81 1015.3
20260507003019 76 95 4.0 8.0 0.00 0.00 0.00 78 1015.1
20260507001516 77 145 2.0 8.0 0.00 0.00 0.00 77 1014.9
20260507000016 77 125 4.0 7.0 0.00 0.00 0.00 77 1014.7
20260506234515 78 61 5.0 11.0 0.00 0.00 0.00 76 1014.5
20260506233015 78 148 4.0 12.0 0.00 0.00 0.00 75 1014.4
20260506231514 79 128 4.0 9.0 0.00 0.00 0.00 73 1014.1
20260506230013 80 188 4.0 9.0 0.00 0.00 0.00 71 1013.8
20260506224523 81 107 1.0 9.0 0.00 0.00 0.00 69 1013.5
20260506223012 81 70 3.0 9.0 0.00 0.00 0.00 65 1013.3
20260506221511 82 83 7.0 13.0 0.00 0.00 0.00 62 1013.1
20260506220010 82 70 5.0 8.0 0.00 0.00 0.00 60 1013.1
20260506214509 83 120 3.0 9.0 0.00 0.00 0.00 59 1013.0
20260506213013 83 157 3.0 11.0 0.00 0.00 0.00 58 1012.8
20260506211511 84 116 2.0 10.0 0.00 0.00 0.00 56 1012.5
20260506210007 83 131 4.0 12.0 0.00 0.00 0.00 56 1012.4
20260506204507 85 104 4.0 13.0 0.00 0.00 0.00 53 1012.2
20260506203005 85 128 2.0 8.0 0.00 0.00 0.00 52 1012.3
20260506201503 84 159 5.0 10.0 0.00 0.00 0.00 53 1012.5
20260506200001 85 125 5.0 11.0 0.00 0.00 0.00 53 1012.7
20260506194601 85 53 5.0 11.0 0.00 0.00 0.00 53 1012.7
20260506193058 85 101 3.0 10.0 0.00 0.00 0.00 52 1012.9
20260506191604 85 156 3.0 11.0 0.00 0.00 0.00 52 1013.1
20260506190057 85 110 4.0 11.0 0.00 0.00 0.00 52 1013.3
20260506184558 85 155 3.0 10.0 0.00 0.00 0.00 52 1013.5
20260506183049 85 112 2.0 7.0 0.00 0.00 0.00 51 1013.6